Regional Weather Roundup
Issued by NWS

Home | Current Version | Previous Version | Text Only | Print | Product List | Glossary On
Versions: 1 2 3 4 5 6 7 8 9 10 11 12 13 14 15 16 17 18 19 20 21 22 23 24 25 26 27 28 29 30 31 32 33 34 35 36 37 38 39 40 41 42 43 44 45 46 47 48 49
000
ASUS46 KPQR 282310
RWROR

OREGON REGIONAL WEATHER ROUNDUP
NATIONAL WEATHER SERVICE PORTLAND OR
400 PM PDT THU AUG 28 2014

NOTE: "FAIR" INDICATES FEW OR NO CLOUDS BELOW 12,000 FEET WITH
NO SIGNIFICANT WEATHER AND/OR OBSTRUCTIONS TO VISIBILITY.

ORZ001>013-290000-
NORTHWEST OREGON


CITY           SKY/WX    TMP DP  RH WIND       PRES   REMARKS
ASTORIA        MOSUNNY   72  61  68 W7        30.09F
NEWPORT        MOSUNNY   63  59  88 NW9       30.13F
PORTLAND       MOSUNNY   82  57  42 N5        30.04F
VANCOUVER WA   SUNNY     82  55  39 NE5       30.04F
SCAPPOOSE      SUNNY     83  57  41 N7        30.03F
HILLSBORO      MOSUNNY   82  59  45 SE6       30.04F
AURORA         SUNNY     84  51  31 VRB6      30.04F
MCMINNVILLE    SUNNY     84  54  35 VRB3      30.04F
SALEM          SUNNY     86  53  32 N8        30.02F
CORVALLIS      SUNNY     88  54  31 NW8       30.03F
EUGENE         MOSUNNY   89  52  28 VRB5      30.02F
$$

ORZ021-028-290000-
SOUTHWEST OREGON


CITY           SKY/WX    TMP DP  RH WIND       PRES   REMARKS
NORTH BEND     SUNNY     66  61  82 N23       30.08F
BROOKINGS      CLEAR     65  56  72 VRB5      30.05F
ROSEBURG       SUNNY     90  50  25 VRB5      29.99F
SEXTON SUMMIT  MOSUNNY   80  45  28 VRB3      30.15F
MEDFORD        SUNNY     95  42  16 NW12      29.96F HX  91
$$

ORZ009-041-290000-
COLUMBIA GORGE


CITY           SKY/WX    TMP DP  RH WIND       PRES   REMARKS
TROUTDALE      SUNNY     84  54  35 NW6       30.03F
THE DALLES     SUNNY     89  47  23 NW16G24   29.94F
$$

ORZ029>031-042>050-061>064-290000-
EASTERN OREGON


CITY           SKY/WX    TMP DP  RH WIND       PRES   REMARKS
REDMOND        SUNNY     87  37  17 NW14      30.04F
BEND           CLEAR     84  36  17 NW12G18   30.07F
KLAMATH FALLS  SUNNY     85  35  16 W10       30.11F HAZE
HERMISTON      MOSUNNY   91  34  13 W14G22    29.92F
PENDLETON      PTSUNNY   86  37  17 W18G25    29.96F
JOHN DAY       PTCLDY    87  32  14 NW7G18    30.05F
MEACHAM        PTSUNNY   77  43  29 MISG      30.10S
LA GRANDE      PTSUNNY   86  45  23 NW15G23   30.00S
BAKER CITY     MOSUNNY   85  44  23 NW12      30.01F
BURNS          MOSUNNY   88  35  15 SW18      30.06F
ROME             N/A     92  36  14 SW10G17   30.04F
ONTARIO        SUNNY     90  52  27 E5        29.95F
$$



USA.gov is the U.S. government's official web portal to all federal, state and local government web resources and services.